Weather History for Montreal Mirabel, QC

Change the Weather History Date:

Saturday, September 7, 2013

  Actual Average Record
Temperature  
Mean Temperature 60 °F -  
Max Temperature 66 °F 70 °F 87 °F (2007)
Min Temperature 55 °F 52 °F 44 °F (2000)
Degree Days  
Heating Degree Days 4    
Growing Degree Days 10 (Base 50)    
Moisture  
Dew Point 54 °F    
Average Humidity 80    
Maximum Humidity 94    
Minimum Humidity 67    
Precipitation  
Precipitation 0.00 in - - ()
Sea Level Pressure  
Sea Level Pressure 29.91 in    
Wind  
Wind Speed 7 mph ()    
Max Wind Speed 13 mph    
Max Gust Speed 22 mph    
Averages and records for this station are not official NWS values.
T = Trace of Precipitation, MM = Missing Value Source: Averaged Metar Reports

Daily Weather History Graph

Daily Weather History Graph

Search for Another Location

Airport:

Trip Planner

Search our weather history database for the weather conditions in past years. The results will help you decide how hot, cold, wet, or windy it might be!

Date:

Astronomy

Sep. 07, 2013 Rise Set
Actual Time 6:24 AM EDT 7:22 PM EDT
Civil Twilight 5:54 AM EDT 7:52 PM EDT
Nautical Twilight 5:18 AM EDT 8:28 PM EDT
Astronomical Twilight 4:40 AM EDT 9:06 PM EDT
Moon 8:46 AM EDT (9/7) 8:08 PM EDT (9/7)
Length of Visible Light 13h 57m
Length of Day
12h 57m
Waxing Crescent, 5% of the Moon is Illuminated
Sep 7
Waxing Crescent
Sep 12
First Quarter
Sep 19
Full
Sep 26
Last Quarter
Oct 4
New

Hourly Weather History & Observations

Time (EDT) Temp. Dew Point Humidity Pressure Visibility Wind Dir Wind Speed Gust Speed Precip Events Conditions
12:00 AM 59.0 °F 48.2 °F 67% 30.01 in 25.0 mi SW 9.2 mph - N/A   Mostly Cloudy
1:00 AM 57.2 °F 48.2 °F 72% 30.00 in 25.0 mi WSW 8.1 mph - N/A   Mostly Cloudy
2:00 AM 57.2 °F 48.2 °F 72% 29.99 in 25.0 mi SW 8.1 mph - N/A   Mostly Cloudy
3:00 AM 57.2 °F 48.2 °F 72% 29.98 in 25.0 mi WSW 6.9 mph - N/A   Mostly Cloudy
4:00 AM 57.2 °F 48.2 °F 72% 29.98 in 25.0 mi WSW 8.1 mph - N/A   Mostly Cloudy
5:00 AM 55.4 °F 50.0 °F 82% 29.96 in 25.0 mi WSW 8.1 mph - N/A   Overcast
6:00 AM 55.4 °F 50.0 °F 82% 29.97 in 25.0 mi WSW 8.1 mph - N/A   Mostly Cloudy
6:43 AM 55.4 °F 51.8 °F 88% 29.96 in 25.0 mi WSW 4.6 mph - N/A Rain Light Rain Showers
7:00 AM 55.4 °F 51.8 °F 88% 29.95 in 25.0 mi SW 5.8 mph - N/A Rain Light Rain Showers
8:00 AM 55.4 °F 53.6 °F 94% 29.94 in 35.0 mi SW 6.9 mph - N/A   Mostly Cloudy
9:00 AM 60.8 °F 55.4 °F 82% 29.93 in 35.0 mi WSW 8.1 mph - N/A   Mostly Cloudy
10:00 AM 62.6 °F 55.4 °F 77% 29.92 in 45.0 mi SW 11.5 mph 18.4 mph N/A   Mostly Cloudy
11:00 AM 66.2 °F 57.2 °F 73% 29.91 in 45.0 mi WSW 12.7 mph 21.9 mph N/A   Mostly Cloudy
12:00 PM 64.4 °F 55.4 °F 73% 29.90 in 45.0 mi SW 9.2 mph 18.4 mph N/A   Overcast
12:09 PM 64.4 °F 55.4 °F 73% 29.90 in 45.0 mi SW 9.2 mph 18.4 mph N/A Rain Light Rain Showers
1:00 PM 64.4 °F 57.2 °F 77% 29.89 in 25.0 mi SW 6.9 mph - N/A   Overcast
2:00 PM 64.4 °F 57.2 °F 77% 29.88 in 45.0 mi SW 9.2 mph 18.4 mph N/A   Overcast
3:00 PM 64.4 °F 57.2 °F 77% 29.86 in 25.0 mi WSW 8.1 mph - N/A   Overcast
4:00 PM 64.4 °F 57.2 °F 77% 29.85 in 45.0 mi WSW 6.9 mph - N/A   Overcast
5:00 PM 64.4 °F 57.2 °F 77% 29.84 in 35.0 mi West 9.2 mph 20.7 mph N/A   Overcast
5:14 PM 64.4 °F 57.2 °F 77% 29.84 in 25.0 mi West 9.2 mph 21.9 mph N/A Rain Light Rain
6:00 PM 62.6 °F 57.2 °F 82% 29.84 in 25.0 mi WSW 8.1 mph 19.6 mph N/A   Overcast
7:00 PM 62.6 °F 57.2 °F 82% 29.86 in 45.0 mi WSW 4.6 mph - N/A   Overcast
8:00 PM 60.8 °F 57.2 °F 88% 29.84 in 25.0 mi SW 8.1 mph - N/A   Overcast
9:00 PM 60.8 °F 59.0 °F 94% 29.84 in 25.0 mi WSW 5.8 mph - N/A   Mostly Cloudy
10:00 PM 60.8 °F 59.0 °F 94% 29.83 in 25.0 mi WSW 4.6 mph - N/A   Overcast
11:00 PM 60.8 °F 59.0 °F 94% 29.83 in 25.0 mi WSW 2.3 mph - N/A   Overcast